Home   Weather   Stange   Past weeks

Flag for Norway Past Weather in Stange, Norway — Yesterday and Last 2 Weeks

Now
30 °F

Chilly.


Feels Like: 30 °F
Forecast: 33 / 37 °F
Wind: 2 mph from Southeast

Location: Haugedalshogda

Current Time: Feb 27, 2017 at 10:23:53 am

Latest Report: Feb 27, 2017 at 9:00 am


Visibility: N/A

Pressure: 29.32 "Hg

Humidity: 93%

Dew Point: 28 °F

Location of StangeLocation

Past Weather in Stange — Graph

°F

Stange Temperature Yesterday

Maximum temperature yesterday: 31 °F (at 3:00 pm)
Minimum temperature yesterday: 11 °F (at 9:00 pm)
Average temperature yesterday: 21 °F

High & Low Weather Summary for the Past Weeks

 TemperatureHumidityPressure
High39 °F (Feb 20, 4:00 am)95% (Feb 21, 3:00 am)30.89 "Hg (Feb 21, 3:00 am)
Low-10 °F (Feb 24, 6:00 am)46% (Feb 23, 2:00 pm)28.64 "Hg (Feb 22, 4:00 pm)
Average20 °F84%29.80 "Hg
* Reported Feb 12 8:00 am — Feb 27 8:00 am, Stange, Weather by CustomWeather, © 2017

Note: Actual official high and low records may vary slightly from our data, if they occured in-between our weather recording intervals... More about our weather records

Advertising

Stange Weather History for the Previous 24 Hours

Scroll right to see more
 ConditionsComfort  
Time TempWeatherWind HumidityBarometerVisibility
8:00 am
Mon, Feb 27
28 °FChilly.1 mph94%29.32 "HgN/A
7:00 am28 °FChilly.No wind94%29.32 "HgN/A
6:00 am27 °FChilly.No wind94%29.35 "HgN/A
5:00 am26 °FChilly.1 mph93%29.38 "HgN/A
4:00 am26 °FChilly.1 mph93%29.41 "HgN/A
3:00 am25 °FChilly.1 mph93%29.44 "HgN/A
2:00 am24 °FCold.1 mph93%29.47 "HgN/A
1:00 am25 °FChilly.1 mph93%29.47 "HgN/A
12:00 am24 °FCold.No wind92%29.47 "HgN/A
11:00 pm
Sun, Feb 26
23 °FCold.2 mph93%29.50 "HgN/A
10:00 pm19 °FCold.1 mph93%29.50 "HgN/A
9:00 pm11 °FCold.No wind90%29.54 "HgN/A
8:00 pm14 °FCold.1 mph93%29.53 "HgN/A
7:00 pm18 °FCold.1 mph91%29.50 "HgN/A
6:00 pm23 °FCold.1 mph90%29.50 "HgN/A
5:00 pm24 °FCold.1 mph81%29.47 "HgN/A
4:00 pm25 °FChilly.1 mph81%29.47 "HgN/A
3:00 pm31 °FChilly.No wind66%29.47 "HgN/A
2:00 pm30 °FChilly.1 mph66%29.47 "HgN/A
1:00 pm29 °FChilly.No wind68%29.47 "HgN/A
12:00 pm25 °FChilly.1 mph75%29.50 "HgN/A
11:00 am24 °FCold.1 mph80%29.47 "HgN/A
10:00 am20 °FCold.1 mph85%29.50 "HgN/A
Weather by CustomWeather, © 2017

See weather overviewHow to use our weather pages